weather.gov     
National Weather Service

Regional Weather Roundup
NWS Homepage
This page is being discontinued on March 12, 2014.
The same data is available at this site. Please update your bookmarks.
Thank you, and we apologize for the inconvenience.
Please send an email to SR-SRH.Webmaster@noaa.gov with any concerns.


Current Version
Previous Version:    01  02  03  04  05  06  07  08  09  10  11  12  13  14  15  16  17  18  19  20  21  22  23  24  25  26  27  28  29  30  
   31  32  33  34  35  36  37  38  39  40  41  42  43  44  45  46  47  48  49  50  51  52  53  54  55  56  57  58  59  60  
[Printable]
237
ASUS44 KLIX 312105
RWRLA
LOUISIANA WEATHER ROUNDUP
NATIONAL WEATHER SERVICE NEW ORLEANS LA
300 PM CST SAT JAN 31 2015

NOTE: "FAIR" INDICATES FEW OR NO CLOUDS BELOW 12,000 FEET WITH NO
      SIGNIFICANT WEATHER AND/OR OBSTRUCTIONS TO VISIBILITY.
      SKY/WX - SKY CONDITION AND SIGNIFICANT WEATHER.
      TMP - AIR TEMPERATURE.    DP   - DEWPOINT TEMPERATURE.
      RH  - RELATIVE HUMIDITY.  PRES - PRESSURE.
      HX  - HEAT INDEX.         WCI  - WIND CHILL INDEX.

*  THESE STATIONS ARE NOT NWS OR FAA STATIONS AND ARE NOT UNDER
   NWS QUALITY CONTROL.

LAZ040-048-061>063-065-066-069-312200-
SOUTHEAST LOUISIANA

CITY           SKY/WX    TMP DP  RH WIND       PRES   REMARKS
N.O. AUDUBON     N/A     60  51  71 MISG        N/A
N.O. INTL ARPT CLOUDY    58  47  66 E9        30.20F
N.O. LAKEFRONT CLOUDY    60  47  61 E14       30.21F
N.O. DOWNTOWN* NOT AVBL
SLIDELL        PTSUNNY   62  47  57 E8        30.21F
BATON ROUGE    CLOUDY    60  44  55 E12       30.18F
BOOTHVILLE     SUNNY     65  51  60 E14       30.19F
BELLE CHASSE   CLOUDY    63  48  58 E13       30.19F
BOGALUSA*        N/A     65  41  41 E7        30.22F
GALLIANO*      CLOUDY    67  51  56 MISG      30.18F
NEW ROADS*     FAIR      62  43  51 E8        30.18F
GONZALES*      FAIR      59  46  61 NE7       30.18F
HAMMOND*       CLOUDY    64  46  52 SE13G18   30.22F
HOUMA*         NOT AVBL
PORT FOURCHON* CLEAR     64  55  72 E15       30.19F

$$

LAZ041-044-053-054-312200-
SOUTHWEST LOUISIANA

CITY           SKY/WX    TMP DP  RH WIND       PRES   REMARKS
LAKE CHARLES   PTSUNNY   64  50  60 E16G23    30.12F
LAFAYETTE      CLOUDY    63  48  58 VRB6      30.15F
PATTERSON      CLOUDY    64  48  55 E10G17    30.16F
SALT POINT       N/A     65  51  60 SE12G20   30.13F
NEW IBERIA     CLOUDY    65  49  56 SE13      30.15F
CHENAULT AIRPK NOT AVBL

$$

LAZ027-028-312200-
CENTRAL LOUISIANA

CITY           SKY/WX    TMP DP  RH WIND       PRES   REMARKS
FORT POLK      CLOUDY    60  46  59 SE7       30.13S
ALEXANDRIA INT PTSUNNY   58  41  53 SE10      30.14F
ALEXANDRIA     MOSUNNY   62  38  40 SE7       30.15F

$$

LAZ001-002-312200-
NORTHWEST LOUISIANA

CITY           SKY/WX    TMP DP  RH WIND       PRES   REMARKS
SHREVEPORT     CLOUDY    57  32  38 SE7       30.12F
BARKSDALE AFB  CLOUDY    57  32  38 S6        30.13F
DTN SHREVEPORT CLOUDY    55  32  41 SE8       30.14F

$$

LAZ014-016-312200-
NORTHEAST LOUISIANA

CITY           SKY/WX    TMP DP  RH WIND       PRES   REMARKS
MONROE         PTSUNNY   57  31  37 VRB6      30.18F
TALLULAH       PTSUNNY   59  29  31 NE5       30.19F

$$





U.S. Dept. of Commerce
NOAA National Weather Service
1325 East West Highway
Silver Spring, MD 20910
E-mail: w-nws.webmaster@noaa.gov
Page last modified: May 16, 2007
NATIONAL WEATHER SERVICE: for Safety, for Work, for Fun - FOR LIFE